N375R KSAN-

Flight info

Callsign N375R
Flight time N/A
Altitude VFR
Route
Aircraft E300/L-VGD/C

Departure

Time 2026-04-22 05:04
Airport San Diego International Airport (KSAN)

Arrival

Time N/A
Airport -
Time Latitude Longitude Altitude Speed Heading
2026-04-22 05:04 32.78216 -117.24261 3097 ft 133 kts 319°
2026-04-22 05:04 32.78902 -117.24983 3167 ft 128 kts 316°
2026-04-22 05:05 32.79545 -117.25692 3229 ft 131 kts 327°
2026-04-22 05:05 32.80422 -117.25924 3244 ft 132 kts
2026-04-22 05:05 32.81329 -117.25654 3187 ft 137 kts 29°
2026-04-22 05:05 32.81697 -117.24640 2778 ft 142 kts 101°
2026-04-22 05:06 32.81419 -117.23607 2429 ft 123 kts 80°
2026-04-22 05:06 32.82069 -117.23199 2174 ft 139 kts 343°
2026-04-22 05:06 32.83110 -117.23719 1046 ft 194 kts 335°
2026-04-22 05:06 32.84291 -117.24224 1110 ft 168 kts 341°
2026-04-22 05:07 32.85428 -117.24632 820 ft 177 kts 342°
2026-04-22 05:07 32.86602 -117.25029 759 ft 168 kts 346°
2026-04-22 05:07 32.87642 -117.24790 951 ft 147 kts 50°
2026-04-22 05:07 32.87921 -117.23697 905 ft 138 kts 78°
2026-04-22 05:08 32.87487 -117.22733 904 ft 152 kts 157°
2026-04-22 05:08 32.86424 -117.22786 899 ft 134 kts 175°
2026-04-22 05:08 32.85670 -117.22332 783 ft 115 kts 85°
2026-04-22 05:08 32.86020 -117.21551 743 ft 105 kts 14°
2026-04-22 05:09 32.85992 -117.22152 680 ft 101 kts 241°
2026-04-22 05:09 32.86098 -117.22926 632 ft 104 kts 313°
2026-04-22 05:09 32.86539 -117.23537 700 ft 97 kts 271°
2026-04-22 05:09 32.86541 -117.24080 702 ft 100 kts 284°
2026-04-22 05:10 32.87093 -117.24470 758 ft 105 kts
2026-04-22 05:10 32.86961 -117.24620 638 ft 137 kts 172°
2026-04-22 05:10 32.86087 -117.23898 751 ft 170 kts 148°
2026-04-22 05:10 32.84962 -117.23357 737 ft 178 kts 162°
2026-04-22 05:11 32.83792 -117.22845 726 ft 179 kts 161°
2026-04-22 05:11 32.82613 -117.22327 677 ft 180 kts 162°
2026-04-22 05:11 32.81425 -117.21853 650 ft 180 kts 165°
2026-04-22 05:11 32.80232 -117.21451 706 ft 177 kts 166°
2026-04-22 05:12 32.79037 -117.21054 738 ft 179 kts 165°
2026-04-22 05:12 32.77852 -117.20586 711 ft 181 kts 152°
2026-04-22 05:12 32.76847 -117.19790 939 ft 173 kts 169°
2026-04-22 05:12 32.75659 -117.19755 768 ft 164 kts 179°
2026-04-22 05:13 32.74868 -117.18946 1003 ft 172 kts 103°
2026-04-22 05:13 32.74658 -117.17574 1299 ft 168 kts 99°
2026-04-22 05:13 32.74343 -117.16458 1303 ft 135 kts 129°
2026-04-22 05:13 32.73557 -117.15938 1121 ft 124 kts 184°
2026-04-22 05:14 32.72958 -117.16507 635 ft 121 kts 255°
2026-04-22 05:14 32.73010 -117.17494 122 ft 116 kts 286°
2026-04-22 05:14 32.73199 -117.18313 32 ft 86 kts 287°
2026-04-22 05:14 32.73333 -117.18864 16 ft 51 kts 291°
2026-04-22 05:15 32.73414 -117.19188 14 ft 33 kts 282°
2026-04-22 05:15 32.73477 -117.19414 17 ft 25 kts 294°
2026-04-22 05:15 32.73496 -117.19537 18 ft 1 kts 287°
2026-04-22 05:15 32.73504 -117.19569 18 ft 4 kts 279°
2026-04-22 05:16 32.73512 -117.19605 19 ft 5 kts 286°
2026-04-22 05:16 32.73524 -117.19651 20 ft 8 kts 307°
2026-04-22 05:16 32.73531 -117.19695 21 ft 7 kts 262°
2026-04-22 05:16 32.73531 -117.19766 21 ft 10 kts 263°
2026-04-22 05:17 32.73608 -117.20003 18 ft 45 kts 288°
2026-04-22 05:17 32.73636 -117.20188 17 ft 18 kts 223°
2026-04-22 05:17 32.73566 -117.20206 17 ft 0 kts 130°
2026-04-22 05:18 32.73479 -117.19878 19 ft 12 kts 113°
2026-04-22 05:18 32.73437 -117.19793 18 ft 0 kts 219°
2026-04-22 05:18 32.73453 -117.19828 18 ft 8 kts 325°
2026-04-22 05:19 32.73513 -117.19821 20 ft 11 kts 70°
2026-04-22 05:19 32.73520 -117.19640 20 ft 43 kts 103°
2026-04-22 05:19 32.73366 -117.19021 17 ft 84 kts 105°
2026-04-22 05:19 32.73237 -117.18454 17 ft 60 kts 103°
2026-04-22 05:20 32.73239 -117.18194 15 ft 15 kts 21°
2026-04-22 05:20 32.73270 -117.18157 15 ft 0 kts 98°
2026-04-22 05:20 32.73263 -117.18098 15 ft 25 kts 105°
2026-04-22 05:21 32.73371 -117.17939 15 ft 25 kts 64°